SCP
0 0 1 1 1 0 0 0 0 0 0 0 0 1 1 1 1 1 1 1 1 1 1 0 0 1 1 0 0 0 0 0 0 1 1 0 0 0 0 0 0 0 0
0 1 1 1 1 1 0 0 0 0 0 0 0 0 1 1 1 1 1 0 1 1 1 1 1 1 1 1 0 0 0 0 0 1 1 0 0 0 0 0 0 0 0
1 1 1 1 1 1 1 0 0 0 0 0 0 0 1 1 1 0 0 0 1 1 1 1 1 1 1 1 1 0 0 0 1 1 1 0 0 0 0 0 0 0 0
1 1 1 1 1 1 1 1 0 0 0 0 0 0 1 1 0 0 0 0 1 1 1 1 1 1 1 1 1 1 1 1 1 1 0 0 0 0 0 0 0 0 0
1 1 1 1 1 1 1 1 0 0 0 1 1 0 0 0 0 0 0 0 0 1 1 1 1 1 1 1 1 1 1 1 1 1 0 0 0 0 0 0 0 0 0
1 1 1 1 1 1 1 1 1 0 0 0 0 0 0 0 0 0 0 0 0 0 1 1 1 1 1 1 1 1 1 1 1 1 0 0 0 0 0 0 0 0 0
2 2 2 1 1 1 1 1 0 0 0 0 0 0 0 0 0 0 0 0 0 0 1 1 1 1 1 1 1 1 1 1 1 1 0 0 0 0 0 0 0 0 0
2 2 2 1 1 1 1 1 0 0 0 0 0 0 0 0 0 0 0 0 0 0 1 1 1 1 1 1 1 1 1 1 1 1 1 0 0 1 1 1 1 0 0
1 1 1 1 1 1 1 0 0 0 0 0 0 0 0 0 0 0 0 0 0 0 0 1 1 1 1 1 1 1 1 1 1 1 1 0 1 1 1 1 1 1 1
0 1 1 1 0 0 0 0 0 0 0 0 0 0 0 0 0 0 0 0 0 0 0 0 1 1 1 1 1 1 1 1 1 1 1 1 1 1 1 1 1 1 1
0 0 0 0 0 0 0 0 0 0 0 0 0 0 0 0 0 0 0 0 0 0 0 0 0 0 0 0 1 1 1 1 0 0 1 1 1 1 1 1 1 1 1
0 0 0 0 0 0 0 0 0 0 0 0 0 0 0 0 0 0 0 0 0 0 0 0 0 0 0 0 0 1 1 0 0 0 0 1 1 1 1 1 1 1 1
0 0 0 0 0 0 0 0 0 0 0 0 0 0 0 0 0 0 0 0 0 0 0 0 0 0 0 0 0 0 0 0 0 0 0 1 1 1 1 1 1 1 1
0 0 0 0 0 0 0 0 0 0 0 0 0 0 0 0 0 0 0 0 0 0 0 0 0 0 0 0 0 0 0 0 0 0 0 0 1 1 1 1 1 1 1
0 0 0 0 0 0 0 0 0 0 0 0 0 0 0 0 0 0 0 0 0 0 0 0 0 0 0 0 0 0 0 0 0 0 0 1 1 1 1 1 1 1 1
0 0 0 0 0 0 0 0 0 0 0 0 0 0 0 0 0 0 0 0 0 0 0 0 0 0 0 0 0 0 0 0 0 0 0 1 1 1 1 1 1 1 1
0 0 0 0 0 0 0 0 0 0 0 0 0 0 0 0 0 0 0 0 0 0 0 0 0 0 0 0 0 0 0 0 0 0 1 1 1 1 1 1 1 1 1
0 0 0 0 0 0 0 0 0 0 0 0 0 0 0 0 0 0 0 0 0 0 0 0 0 0 0 0 0 0 0 0 0 0 1 1 1 1 1 1 1 1 1
0 0 0 0 0 0 0 0 0 0 0 0 0 0 0 0 0 0 0 0 0 0 0 0 0 0 0 0 0 0 0 0 0 0 1 1 0 0 1 1 1 1 1
0 0 0 0 0 0 0 0 0 0 0 0 0 0 0 0 0 0 0 0 0 0 0 0 0 0 0 0 0 0 0 0 0 0 0 0 0 0 0 1 1 1 1
0 0 0 0 0 0 0 0 0 0 0 0 0 0 0 0 0 0 0 0 0 0 0 0 0 0 0 0 0 0 0 0 0 0 0 0 0 0 0 0 1 1 1
0 0 0 0 0 0 0 0 0 0 0 0 0 0 0 0 0 0 0 0 0 0 0 0 0 0 0 0 0 0 0 0 0 0 0 0 0 0 0 0 0 0 0
0 0 0 0 0 0 0 0 0 0 0 0 0 0 0 0 0 0 0 0 0 0 0 0 0 0 0 0 0 0 0 0 0 0 0 0 0 0 0 0 0 0 0
0 0 0 0 0 0 0 0 0 0 0 0 0 0 0 0 0 0 0 0 0 0 0 0 0 0 0 0 0 0 0 0 0 0 0 0 0 0 0 0 0 0 0
0 0 0 0 0 0 0 0 0 0 0 0 0 0 0 0 0 0 0 0 0 0 0 0 0 0 0 0 0 0 0 0 0 0 0 0 0 0 0 0 0 0 0
0 0 0 0 0 0 0 0 0 0 0 0 0 0 0 0 0 0 0 0 0 0 0 0 0 0 0 0 0 0 0 0 0 0 0 0 0 0 0 0 0 0 0
Wind_Speed
1 1 7 9 10 11 11 11 12 12 12 11 11 11 11 11 10 9 9 8 8 8 7 7 7 6 6 6 6 6 5 5 5 5 5 4 3 3 3 3 2 1 2
4 3 8 9 10 11 11 11 11 11 11 11 11 11 10 10 9 9 8 7 7 7 7 7 6 6 6 5 5 5 5 5 5 5 5 4 3 2 2 2 2 1 1
5 4 7 9 10 10 11 11 11 11 11 10 10 10 10 9 9 8 7 6 6 6 6 6 6 5 5 5 5 5 5 4 4 5 5 3 2 2 2 2 2 2 1
6 5 6 9 10 10 11 10 10 10 10 10 10 9 9 9 8 7 6 5 5 5 5 5 5 5 5 5 5 4 4 5 5 5 3 2 2 2 2 2 2 2 2
6 5 6 9 10 10 10 10 9 9 9 9 9 9 8 8 7 6 6 5 5 5 5 5 5 5 5 5 5 5 4 5 6 5 3 2 2 1 1 1 2 2 3
5 4 6 9 9 10 9 9 9 9 8 8 8 8 7 6 6 5 5 5 5 5 5 5 5 5 5 5 5 5 4 5 5 3 2 2 2 2 1 1 2 2 3
5 4 5 9 9 9 9 9 8 8 7 7 7 6 6 5 5 5 5 5 5 5 5 5 5 5 5 5 5 5 5 5 3 2 2 2 2 2 1 2 2 2 2
5 4 4 7 8 8 8 7 6 6 6 6 5 5 4 4 4 4 4 4 4 4 5 5 6 6 6 5 5 5 5 5 4 3 2 2 3 2 1 2 1 2 2
5 4 3 3 4 5 6 6 5 5 4 4 4 4 4 4 4 4 4 4 5 4 5 5 5 6 6 6 5 5 5 5 3 2 3 2 3 2 1 1 1 1 2
4 4 3 3 3 3 3 3 3 3 3 4 4 4 5 6 6 6 6 6 6 5 5 6 5 5 6 6 6 5 5 5 2 2 2 3 3 2 1 1 1 1 2
3 2 2 2 2 2 2 2 3 4 5 5 5 6 6 4 4 4 6 6 6 7 6 6 6 6 6 6 6 5 4 2 2 2 2 4 3 2 1 1 1 1 2
2 1 1 1 1 1 1 2 2 3 3 3 3 3 3 3 3 4 7 8 8 8 8 7 7 6 5 3 4 5 2 2 2 2 2 5 3 2 1 1 0 1 1
3 2 2 2 1 1 1 1 1 2 2 3 3 3 2 3 3 3 3 4 5 6 4 5 5 3 3 2 2 2 2 1 1 2 3 5 4 3 2 1 0 0 1
3 2 2 2 2 1 1 1 1 1 2 2 2 2 2 2 2 2 2 2 2 2 3 3 2 3 3 3 2 2 2 1 1 1 2 5 4 3 2 2 1 0 0
2 2 1 2 2 2 2 1 2 1 1 1 1 2 2 1 2 2 2 2 3 2 2 3 3 3 3 3 2 2 2 2 1 1 2 5 4 3 3 2 2 1 0
2 2 1 2 2 3 2 1 1 1 1 1 2 2 2 1 1 2 2 2 2 2 2 2 2 2 2 2 3 3 2 2 2 2 2 3 5 5 3 2 2 1 1
3 2 2 3 3 3 3 2 2 1 1 1 2 2 2 2 2 1 2 2 2 2 2 2 2 2 2 3 3 3 2 2 2 2 2 2 3 4 4 3 3 2 1
4 3 2 3 4 3 3 2 2 2 2 2 2 2 2 2 2 2 2 2 3 2 2 2 2 2 2 3 2 3 3 2 3 2 2 2 2 2 4 4 3 3 2
4 4 3 4 4 3 3 3 3 2 2 2 2 2 2 3 3 2 2 2 3 2 2 2 2 1 2 2 2 2 3 3 3 3 3 3 2 2 2 3 4 4 3
3 4 4 4 4 4 3 3 3 3 2 2 2 2 3 2 3 2 2 3 3 2 3 3 2 2 1 2 2 3 3 3 3 3 3 3 3 3 3 3 2 3 4
3 3 4 4 3 3 2 2 2 1 1 2 2 2 3 3 3 3 2 3 3 2 2 2 2 2 2 2 2 3 3 3 4 3 3 3 3 3 3 2 2 2 2
3 3 3 3 3 2 2 2 2 1 0 1 2 2 3 3 3 2 2 2 2 2 3 3 2 1 2 3 2 2 3 5 4 4 3 3 3 3 3 3 2 2 1
3 4 4 3 3 3 3 3 3 3 2 3 3 3 3 3 3 3 2 2 2 2 2 2 1 1 1 2 2 2 2 0 3 3 3 3 4 3 3 3 2 2 1
3 3 3 3 3 3 3 3 3 2 1 1 1 2 3 3 3 3 3 2 2 1 1 2 1 1 1 1 1 1 1 2 1 2 3 3 3 3 3 3 3 2 2
2 3 3 3 3 2 3 3 3 2 1 0 1 2 3 3 3 3 3 2 2 2 2 2 2 1 1 1 0 0 1 1 1 1 2 3 3 3 3 3 2 2 2
3 3 3 3 2 2 3 3 3 3 1 1 2 2 2 2 3 4 3 2 2 2 2 2 1 1 1 1 0 1 1 1 1 1 1 1 2 3 3 2 2 2 2
Wind_Direction
128 146 124 113 109 106 105 105 105 103 101 99 96 94 97 99 96 94 92 88 84 81 77 73 69 66 65 65 63 59 57 60 56 54 49 49 54 55 61 75 82 74 121
130 126 121 115 109 105 104 105 103 100 98 96 95 94 94 95 94 91 87 84 81 79 74 68 65 62 59 57 53 49 48 49 47 44 35 34 43 54 55 66 80 79 82
117 113 117 114 109 106 105 102 100 97 95 93 94 93 92 91 91 88 85 82 79 76 72 64 58 55 53 53 47 41 39 34 33 34 28 14 5 50 59 66 69 68 41
119 113 116 115 110 107 104 101 98 97 95 93 93 91 90 89 87 85 81 77 72 69 66 58 49 43 43 40 37 37 36 29 26 30 20 358 346 33 55 66 65 63 53
113 110 120 117 113 109 105 102 98 97 95 94 92 88 86 86 85 81 75 69 62 57 55 49 41 35 34 29 27 28 31 26 26 25 4 355 342 345 31 59 79 82 78
115 111 121 118 114 109 106 102 99 97 95 93 90 88 85 82 77 69 61 55 48 43 40 36 28 25 24 19 14 18 24 25 31 17 1 345 324 321 358 87 94 97 100
118 110 121 121 116 111 106 101 100 99 96 93 91 88 81 75 67 61 51 44 32 25 22 19 14 8 11 11 6 11 17 18 34 13 358 338 317 316 79 110 108 112 110
120 107 105 119 115 110 107 104 102 99 95 90 83 77 67 58 46 36 27 23 19 15 9 6 4 2 1 2 3 7 12 12 25 14 354 332 321 337 85 110 114 112 118
104 98 83 83 98 108 108 104 98 92 85 77 62 51 43 35 23 13 9 6 6 2 1 0 359 359 3 3 2 7 19 21 32 3 355 337 329 349 63 95 116 105 95
88 88 82 71 67 63 62 87 84 74 59 44 34 28 30 26 15 5 3 359 357 354 355 355 355 358 3 4 6 9 17 21 23 2 344 325 333 339 40 86 103 96 86
99 87 90 84 70 60 45 43 38 32 30 28 23 25 32 21 7 0 357 358 358 358 359 360 357 0 7 6 5 9 16 21 8 346 328 326 333 338 11 68 102 94 83
153 149 132 114 89 66 45 46 27 28 27 26 27 26 22 16 8 14 7 7 5 5 7 10 11 16 19 8 4 11 14 4 2 335 328 332 334 334 342 8 123 95 87
168 163 161 146 117 87 46 35 26 29 28 22 26 34 35 27 15 16 8 1 1 7 9 5 12 14 12 4 2 2 1 360 346 330 329 335 334 333 333 344 248 153 99
147 171 169 143 133 113 87 48 39 38 28 20 14 29 45 33 22 11 11 357 359 358 2 7 6 4 4 4 6 3 4 358 333 322 317 334 340 339 335 331 322 240 133
158 167 162 144 137 111 94 66 62 48 37 22 16 24 54 56 32 18 11 6 0 1 7 3 7 9 6 3 4 9 1 356 339 332 330 339 342 343 337 336 342 356 29
172 171 161 127 120 115 110 102 80 61 49 40 30 27 53 70 56 34 16 7 2 -0 1 11 17 13 2 2 8 5 360 359 353 352 345 339 345 351 353 359 3 8 19
169 159 144 130 111 114 114 101 80 63 63 50 32 28 44 60 62 52 26 7 354 352 3 17 23 22 15 14 8 359 4 8 4 358 354 351 349 353 359 2 3 3 12
155 152 142 121 113 110 102 88 76 64 62 46 35 31 34 41 50 52 32 4 349 359 12 20 26 26 17 14 4 356 4 8 6 4 9 7 3 356 357 4 13 7 3
160 150 125 110 110 105 95 84 73 68 59 41 37 32 26 31 39 47 30 1 359 14 16 14 34 35 18 6 6 12 11 11 2 14 18 12 6 4 1 4 16 14 15
140 134 125 112 102 96 85 74 58 51 37 31 28 16 20 22 28 37 28 13 15 26 19 20 28 29 24 3 22 26 16 12 19 20 11 9 6 8 13 15 14 5 20
124 127 132 125 121 112 95 90 81 53 10 11 5 8 14 15 18 29 20 14 20 28 11 15 32 31 17 4 37 13 1 15 31 22 12 14 9 5 13 17 19 15 6
146 147 141 143 145 139 122 122 122 122 61 354 339 359 11 11 8 16 23 11 12 21 18 21 37 39 15 24 64 57 10 356 357 7 9 17 5 4 12 10 14 20 15
163 167 159 157 145 132 114 97 75 52 31 16 1 351 348 355 2 12 17 17 15 28 13 2 26 73 39 15 48 106 104 311 322 337 356 8 4 8 2 357 4 1 3
188 160 144 139 130 126 122 116 113 108 100 290 302 318 337 358 4 10 13 16 16 18 7 348 34 71 101 35 18 51 128 163 128 335 333 344 357 5 356 353 355 352 357
152 136 132 122 119 123 125 127 117 107 128 336 348 357 357 356 4 7 11 14 11 8 1 2 14 43 105 141 137 105 84 69 113 145 310 327 343 346 346 344 345 341 348
121 118 122 122 124 129 127 125 128 131 120 61 15 2 350 344 348 357 359 4 2 3 357 355 2 31 55 99 123 152 155 160 184 161 224 303 323 317 328 336 342 331 338